Weather History for Evansville, IN

Change the Weather History Date:

Saturday, February 25, 2012

  Actual Average Record
Temperature  
Mean Temperature 33 °F 40 °F  
Max Temperature 41 °F 49 °F 76 °F (2000)
Min Temperature 24 °F 30 °F -3 °F (1967)
Degree Days  
Heating Degree Days 32 25  
Month to date heating degree days 642 721  
Since 1 July heating degree days 2967 3500  
Cooling Degree Days 0 0  
Month to date cooling degree days 0 0  
Year to date cooling degree days 0 0  
Moisture  
Dew Point 20 °F    
Average Humidity 63    
Maximum Humidity 81    
Minimum Humidity 44    
Precipitation  
Precipitation 0.00 in 0.11 in 1.56 in (1929)
Month to date precipitation 1.36 2.83  
Year to date precipitation 4.75 5.93  
Snow  
Snow 0.00 in 0.10 in 10.90 in (1993)
Month to date snowfall 0.2 3.5  
Since 1 July snowfall 0.5 10.4  
Snow Depth 0.00 in    
Sea Level Pressure  
Sea Level Pressure 30.28 in    
Wind  
Wind Speed 8 mph (NW)    
Max Wind Speed 22 mph    
Max Gust Speed 29 mph    
Visibility 10 miles    
Events      
T = Trace of Precipitation, MM = Missing Value Source: NWS Daily Summary

Daily Weather History Graph

Daily Weather History Graph

Search for Another Location

Airport:

Trip Planner

Search our weather history database for the weather conditions in past years. The results will help you decide how hot, cold, wet, or windy it might be!

Date:

Astronomy

Feb. 25, 2012 Rise Set
Actual Time 6:28 AM CST 5:38 PM CST
Civil Twilight 6:01 AM CST 6:05 PM CST
Nautical Twilight 5:30 AM CST 6:36 PM CST
Astronomical Twilight 5:00 AM CST 7:06 PM CST
Moon 7:56 AM CST (2/25) 9:34 PM CST (2/25)
Length of Visible Light 12h 04m
Length of Day
11h 10m
Waxing Crescent, 14% of the Moon is Illuminated
Feb 25
Waxing Crescent
Feb 29
First Quarter
Mar 8
Full
Mar 14
Last Quarter
Mar 22
New

Hourly Weather History & Observations

Time (CST) Temp. Windchill Dew Point Humidity Pressure Visibility Wind Dir Wind Speed Gust Speed Precip Events Conditions
12:54 AM 35.1 °F 27.4 °F 21.9 °F 59% 30.14 in 10.0 mi West 10.4 mph - N/A   Clear
1:54 AM 37.9 °F 29.6 °F 21.0 °F 51% 30.14 in 10.0 mi WNW 13.8 mph 23.0 mph N/A   Overcast
2:54 AM 35.6 °F 28.0 °F 21.2 °F 56% 30.13 in 10.0 mi WNW 10.4 mph - N/A   Mostly Cloudy
3:54 AM 35.1 °F 28.6 °F 21.9 °F 59% 30.16 in 10.0 mi NW 8.1 mph - N/A   Overcast
4:54 AM 32.0 °F 28.7 °F 21.2 °F 64% 30.16 in 10.0 mi NNW 3.5 mph - N/A   Partly Cloudy
5:54 AM 30.2 °F - 21.2 °F 69% 30.17 in 10.0 mi Calm Calm - N/A   Mostly Cloudy
6:54 AM 28.9 °F - 21.9 °F 75% 30.20 in 10.0 mi Calm Calm - N/A   Mostly Cloudy
7:54 AM 35.1 °F 26.9 °F 23.0 °F 61% 30.22 in 10.0 mi West 11.5 mph 19.6 mph N/A   Scattered Clouds
8:54 AM 36.0 °F 25.3 °F 19.0 °F 50% 30.26 in 10.0 mi West 19.6 mph 27.6 mph N/A   Clear
9:54 AM 35.1 °F 25.2 °F 19.9 °F 54% 30.29 in 10.0 mi WNW 16.1 mph 26.5 mph N/A   Mostly Cloudy
10:54 AM 37.9 °F 27.9 °F 19.9 °F 48% 30.32 in 10.0 mi WNW 19.6 mph 26.5 mph N/A   Mostly Cloudy
11:54 AM 37.0 °F 26.7 °F 21.9 °F 54% 30.34 in 10.0 mi NNW 19.6 mph 23.0 mph N/A   Mostly Cloudy
12:54 PM 37.0 °F 29.3 °F 19.9 °F 50% 30.34 in 10.0 mi NW 11.5 mph 18.4 mph N/A   Scattered Clouds
1:54 PM 36.0 °F 30.3 °F 19.0 °F 50% 30.34 in 10.0 mi Variable 6.9 mph - N/A   Partly Cloudy
2:54 PM 37.9 °F 32.1 °F 19.0 °F 47% 30.35 in 10.0 mi WNW 8.1 mph - N/A   Scattered Clouds
3:54 PM 39.0 °F 33.4 °F 19.0 °F 45% 30.35 in 10.0 mi SW 8.1 mph - N/A   Mostly Cloudy
4:54 PM 37.9 °F 32.7 °F 18.0 °F 45% 30.35 in 10.0 mi WSW 6.9 mph - N/A   Partly Cloudy
5:54 PM 35.1 °F 32.2 °F 18.0 °F 50% 30.35 in 10.0 mi WNW 3.5 mph - N/A   Clear
6:54 PM 30.9 °F - 19.9 °F 64% 30.36 in 10.0 mi Calm Calm - N/A   Clear
7:54 PM 30.0 °F - 19.9 °F 66% 30.38 in 10.0 mi Calm Calm - N/A   Clear
8:54 PM 27.0 °F 23.0 °F 21.0 °F 78% 30.38 in 10.0 mi NE 3.5 mph - N/A   Clear
9:54 PM 28.0 °F 22.8 °F 21.0 °F 75% 30.37 in 10.0 mi NE 4.6 mph - N/A   Clear
10:54 PM 27.0 °F 23.0 °F 21.0 °F 78% 30.37 in 10.0 mi NE 3.5 mph - N/A   Clear
11:54 PM 27.0 °F - 19.9 °F 75% 30.36 in 10.0 mi Calm Calm - N/A   Clear